Regional Weather Roundup
Issued by NWS

Home | Current Version | Previous Version | Text Only | Print | Product List | Glossary On
Versions: 1 2 3 4 5 6 7 8 9 10 11 12 13 14 15 16 17 18 19 20 21 22 23 24 25 26 27 28 29 30 31 32 33 34 35 36 37 38 39 40 41 42 43 44 45 46 47 48 49 50
000
ASUS44 KMEG 240410
RWRTN
TENNESSEE HOURLY STATE WEATHER ROUNDUP
NATIONAL WEATHER SERVICE MEMPHIS TN
1100 PM CDT WED MAY 23 2018

TNZ002-004-019-021-049-052-054-088>092-240500-
WEST TENNESSEE

CITY           SKY/WX    TMP DP  RH WIND       PRES   REMARKS
MEMPHIS INTL   CLOUDY    75  71  87 CALM      30.08S
NWS MEMPHIS      N/A     74 N/A N/A MISG        N/A
JACKSON        FAIR      72  71  97 CALM      30.08S
DYERSBURG      FAIR      76  69  79 NE3       30.09S
COVINGTON      PTCLDY    75  72  88 CALM      30.07S
BOLIVAR        CLEAR     73  72  94 CALM      30.08S
PARIS          CLEAR     72  66  83 CALM      30.11S
LEXINGTON      CLEAR     72  68  88 N3        30.09S
SELMER         CLEAR     72  70  94 CALM      30.08S
SAVANNAH       CLEAR     72  70  94 CALM      30.08S
$$

TNZ008-025-027-028-033-062-065-066-240500-
NORTH MIDDLE TENNESSEE

CITY           SKY/WX    TMP DP  RH WIND       PRES   REMARKS
NASHVILLE      MOCLDY    76  64  66 N5        30.11S
DICKSON        CLEAR     70  66  88 CALM      30.11S
PORTLAND       CLEAR     72  68  88 CALM      30.11F
CLARKSVILLE    FAIR      73  64  73 CALM      30.10F
SMYRNA         FAIR      70  65  84 CALM      30.11S
MURFREESBORO   MOCLDY    73  64  73 CALM      30.09S
COOKEVILLE     CLEAR     64  64 100 CALM      30.11F
LIVINGSTON     CLEAR     72  64  78 NE6       30.13S
CROSSVILLE     FAIR      68  62  81 N3        30.16S
ROCKWOOD       CLEAR     70  63  78 N5        30.14S
$$

TNZ061-075-076-078-094-096-097-240500-
SOUTH MIDDLE TENNESSEE

CITY           SKY/WX    TMP DP  RH WIND       PRES   REMARKS
LEWISBURG      CLOUDY    66  64  94 CALM      30.10S
FAYETTEVILLE   CLEAR     73  64  73 N6        30.10S
TULLAHOMA      CLEAR     72  64  78 CALM      30.11R
WINCHESTER     CLEAR     70  66  88 CALM      30.11R
MCMINNVILLE    CLEAR     68  64  88 CALM      30.11F
COLUMBIA       CLEAR     70  70 100 CALM      30.09S
SHELBYVILLE    CLEAR     68  64  88 CALM      30.11R
$$

TNZ017-018-042-046-047-240500-
NORTHEAST TENNESSEE

CITY           SKY/WX    TMP DP  RH WIND       PRES   REMARKS
TRI CITIES     FAIR      69  63  81 CALM      30.14R
ELIZABETHTON     N/A     64  63  94 CALM      30.15R
GREENEVILLE    CLOUDY    75  61  60 NE8       30.14R
$$

TNZ012-013-036-069-073-074-240500-
CENTRAL EAST TENNESSEE

CITY           SKY/WX    TMP DP  RH WIND       PRES   REMARKS
KNOXVILLE      CLOUDY    73  66  78 CALM      30.09S
OAK RIDGE      FAIR      73  66  78 CALM      30.11S
DOWNTOWN KNOXV   N/A     66  66 100 CALM      30.10S
GATLINBURG     PTCLDY    70  68  94 CALM      30.11R
MORRISTOWN     PTCLDY    70  64  83 NE3       30.12R
JACKSBORO      CLEAR     66  64  94 CALM      30.16S
$$

TNZ083-085-099-240500-
SOUTHEAST TENNESSEE

CITY           SKY/WX    TMP DP  RH WIND       PRES   REMARKS
CHATTANOOGA    MOCLDY    76  66  71 E3        30.08S
DAYTON         PTCLDY    72  70  94 CALM      30.08F
$$

SKY/WX REPORTED AS FAIR MEANS FEW OR NO CLOUDS BELOW
12 THOUSAND FEET.




USA.gov is the U.S. government's official web portal to all federal, state and local government web resources and services.